Hillsdale Real Estate, NSW, 2036 Bayside (NSW)

Thinking about buying in Hillsdale? Now could not be a better time, with a whopping 3801 properties either residential or commercial there's certainly plenty to choose from.

The average property price for this area is $773,000 with prices in this suburb ranging from $540,000 to $1,350,000.

Distance to the coast is 1 Km.

Hillsdale Real Estate Market Outlook

Good balance between supply and demand ensures a range of affordable options within budget limits. Recent increases in listings may provide buying opportunities. In this area of average incomes, there is a mix of housing size and quality. While this may present buying opportunities, growth may be constrained. As buyers begin to examine Hillsdale due to other areas being out of the price range and the trend to working from home, "gentrification" may incease price growth. A mix of professions and above average income earners in Hillsdale provides good demand. The lower than average housing turnover of these people also means fewer regular listings leading to periodic large price increases. Lower than average population density constrains growth in Hillsdale to an extent. However, where buyers are willing to compromise on housing and lifestyle choice, there are affordable options. Lower than average industry presence in Hillsdale we believe will be less of a negative impact than it has in the past. Post-COVID and the growth in working from home has lessened the demand for local employment options. This may make Hillsdale a better buying opportunity than it may have been in the past.

About

For Sale

McGrath UNIT 6, 4 GRACE CAMPBELL CR, HILLSDALE, NSW, 2036 2 1 1 For Sale $685,000
One Agency UNIT 3, 11 UNSTED CR, HILLSDALE, NSW, 2036 2 1 1 Auction
PRD UNIT 5, 10 GRACE CAMPBELL CR, HILLSDALE, NSW, 2036 2 1 1 Auction Wednesday 25th May at 6.00pm
PRD UNIT 8, 41 JAUNCEY PL, HILLSDALE, NSW, 2036 2 1 1 SELLING - PRICE GUIDE $635,000
PRD UNIT 8, 38 BRITTAIN CR, HILLSDALE, NSW, 2036 2 1 1 Vendor Wants Immediate Sale - $580k - $610k
RayWhite UNIT 4, 17 RHODES ST, HILLSDALE, NSW, 2036 2 2 2 Auction
RayWhite 6 PODMORE PL, HILLSDALE, NSW, 2036 10 6 6 For Sale $3,450,000

More

Local Schools


None within suburb boundary

(While the above schools are located with the suburb of Hillsdale there may also be nearby schools whose catchments cover this suburb)

Local Crime Stats


Average Local Climate by month


(mm)
RAIN
Min (°C)
TEMP
Max (°C)
TEMP
Min (%)
HUMIDITY
Max (%)
HUMIDITY
(m/sec)
WIND
(MJ/sq m)
SOLAR
Jan2.420.328.550.988.36.223.1
Feb4.120.227.552.787.86.020.1
Mar4.918.826.451.487.45.616.5
Apr3.515.623.949.486.95.014.0
May2.112.021.145.583.25.111.4
Jun4.110.018.350.886.15.29.2
Jul2.18.918.641.880.85.210.5
Aug2.09.419.636.878.15.713.2
Sept1.512.322.436.881.25.817.5
Oct2.014.824.141.484.16.021.0
Nov2.617.125.845.785.66.223.3
Dec2.018.927.446.786.46.224.6

source: Australian Government Bureau of Meteorology

Recently Sold

29-04-2022 $680,000 7 / 12 GRACE CAMPBELL CRES HILLSDALE 2036
26-04-2022 $1,000,000 4 FLINT ST HILLSDALE 2036
26-04-2022 $1,000,000 4 FLINT ST HILLSDALE 2036
26-04-2022 $1,000,000 4 FLINT ST HILLSDALE 2036
26-04-2022 $630,000 6 / 14 JAUNCEY PL HILLSDALE 2036
22-04-2022 $925,000 1102 / 39 RHODES ST HILLSDALE 2036
13-04-2022 $595,000 5 NILSON AVE HILLSDALE 2036
13-04-2022 $595,000 5 NILSON AVE HILLSDALE 2036
13-04-2022 $595,000 5 NILSON AVE HILLSDALE 2036
13-04-2022 $595,000 5 NILSON AVE HILLSDALE 2036
08-04-2022 $620,000 17 / 9 NILSON AVE HILLSDALE 2036
08-04-2022 $570,000 2 / 16 BRITTAIN CRES HILLSDALE 2036
06-04-2022 $600,000 1 / 1 JAUNCEY PL HILLSDALE 2036
05-04-2022 $950,000 1601 / 39 RHODES ST HILLSDALE 2036
01-04-2022 $1,110,000 4 / 1 JAUNCEY PL HILLSDALE 2036
28-03-2022 $655,000 6 / 1 JAMES PL HILLSDALE 2036
25-03-2022 $875,000 1 / 2 NILSON AVE HILLSDALE 2036
24-03-2022 $531,000 2 / 2 PODMORE PL HILLSDALE 2036
16-03-2022 $1,100,000 1103 / 238 BUNNERONG RD HILLSDALE 2036
11-03-2022 $714,000 31 JAUNCEY PL HILLSDALE 2036
11-03-2022 $714,000 31 JAUNCEY PL HILLSDALE 2036
11-03-2022 $714,000 31 JAUNCEY PL HILLSDALE 2036
11-03-2022 $714,000 31 JAUNCEY PL HILLSDALE 2036
04-03-2022 $580,000 3 ELLIOT PL HILLSDALE 2036
04-03-2022 $580,000 3 ELLIOT PL HILLSDALE 2036
04-03-2022 $643,500 3 / 18 FLINT ST HILLSDALE 2036
03-03-2022 $700,000 2 / 14 FLACK AVE HILLSDALE 2036
02-03-2022 $940,000 2705 / 39 RHODES ST HILLSDALE 2036
28-02-2022 $515,000 3 / 31 BRITTAIN CRES HILLSDALE 2036
28-02-2022 $515,000 3 / 31 BRITTAIN CRES HILLSDALE 2036
23-02-2022 $650,000 8 / 15 JAUNCEY PL HILLSDALE 2036
21-02-2022 $1,335,000 52 NILSON AVE HILLSDALE 2036
21-02-2022 $1,335,000 52 NILSON AVE HILLSDALE 2036
18-02-2022 $592,500 3 / 3 UNSTED CRES HILLSDALE 2036
04-02-2022 $450,000 1401 / 238 BUNNERONG RD HILLSDALE 2036
03-02-2022 $2,571,426 14 BRITTAIN CRES HILLSDALE 2036
03-02-2022 $2,571,426 14 BRITTAIN CRES HILLSDALE 2036
03-02-2022 $2,571,426 14 BRITTAIN CRES HILLSDALE 2036
03-02-2022 $2,571,426 14 BRITTAIN CRES HILLSDALE 2036
03-02-2022 $2,571,426 14 BRITTAIN CRES HILLSDALE 2036
03-02-2022 $2,571,426 14 BRITTAIN CRES HILLSDALE 2036
03-02-2022 $2,571,426 14 BRITTAIN CRES HILLSDALE 2036
01-02-2022 $495,000 5 / 37 JAUNCEY PL HILLSDALE 2036
01-02-2022 $550,000 20 / 5 GRACE CAMPBELL CRES HILLSDALE 2036
01-02-2022 $915,000 1703 / 39 RHODES ST HILLSDALE 2036
31-01-2022 $1,450,000 2 / 12 NILSON AVE HILLSDALE 2036
25-01-2022 $670,000 5 / 10 JAUNCEY PL HILLSDALE 2036
21-01-2022 $656,000 4 / 15 JAUNCEY PL HILLSDALE 2036
21-01-2022 $637,000 2 / 20 JAUNCEY PL HILLSDALE 2036
19-01-2022 $850,000 11 / 276 BUNNERONG RD HILLSDALE 2036

Residz covers 12m+ Australian properties and brings together a wealth of data to give you a better understanding of an area. From crime and schools to bush fire, flood risk and more. Begin your search for properties for sale or learn more about where you currently reside. Residz is an exciting next-generation Real Estate platform getting better by the day!